Regional Weather Roundup
Issued by NWS Charleston, SC

Current Version | Previous Version | Graphics & Text | Print | Product List | Glossary On
Versions: 1 2 3 4 5 6 7 8 9 10 11 12 13 14 15 16 17 18 19 20 21 22 23 24 25 26 27 28 29 30 31 32 33 34 35 36 37 38 39 40 41 42 43 44 45 46 47 48 49 50
000 ASUS42 KCHS 241210 RWRCHS REGIONAL WEATHER ROUNDUP NATIONAL WEATHER SERVICE CHARLESTON SC 700 AM EST WED DEC 24 2014 NOTE: "FAIR" INDICATES FEW OR NO CLOUDS BELOW 12,000 FEET WITH NO SIGNIFICANT WEATHER AND/OR OBSTRUCTIONS TO VISIBILITY. NOT ALL STATIONS ARE QUALITY CONTROLLED BY THE NATIONAL WEATHER SERVICE. USE DATA WITH CAUTION...ESPECIALLY DEWPOINT OBSERVATIONS. SCZ027-030-031-034>040-042>050-241300- ...SOUTHEAST SOUTH CAROLINA... CITY SKY/WX TMP DP RH WIND PRES REMARKS N CHARLESTON LGT RAIN 68 66 93 S15 29.81F 6HR MIN TEMP: 54; 6HR MAX TEMP: 69; 6HR PCP: 0.12; WATERFRONT PRK N/A 64 N/A N/A S15G22 N/A MOUNT PLEASANT LGT RAIN 68 68 100 S15G21 29.82S PINOPOLIS N/A 70 66 88 S7 29.72S MONCKS CORNER CLOUDY 70 66 88 S12G23 29.80S SUMMERVILLE DRIZZLE 66 66 100 S8G20 29.81R BEAUFORT MCAS RAIN 67 66 97 S12G23 29.80S FOG 6HR MIN TEMP: 55; 6HR MAX TEMP: 67; 6HR PCP: 0.27; BEAUFORT ARPT TSTM 64 64 100 SW8G17 29.81R HILTON HEAD IS RAIN 66 66 100 S7 29.82 WALTERBORO CLOUDY 66 N/A N/A S13 29.80R ALLENDALE LGT RAIN 68 66 94 S8G15 29.75S ...SOUTHERN MIDLANDS AND PEE DEE... CITY SKY/WX TMP DP RH WIND PRES REMARKS GEORGETOWN NOT AVBL KINGSTREE NOT AVBL ORANGEBURG HVY RAIN 66 63 90 W9 29.78R FOG 6HR MIN TEMP: 54; 6HR MAX TEMP: 67; 6HR PCP: 0.54; BARNWELL DRIZZLE N/A N/A N/A E6 29.77F AIKEN CLOUDY 54 54 100 N5 29.80R MANNING CLOUDY 66 N/A N/A S7 29.77F COLUMBIA LGT RAIN 52 52 100 CALM 29.78S FOG 6HR MIN TEMP: 51; 6HR MAX TEMP: 55; 6HR PCP: 1.55; SUMTER HVY RAIN 55 55 100 N5 29.78R FOG 6HR PCP: 1.50; FLORENCE RAIN 67 65 93 S14 29.79S FOG 6HR MIN TEMP: 53; 6HR MAX TEMP: 67; 6HR PCP: 0.37; MYRTLE BEACH LGT RAIN 66 64 94 SW23 29.85R FOG N MYRTLE BEACH HVY RAIN 67 65 93 S18G33 29.84R FOG 6HR MIN TEMP: 61; 6HR MAX TEMP: 68; 6HR PCP: 0.07; $$ GAZ063-065-086>088-099>101-113>116-118-119-134>141-150-241300- ...SOUTHEAST GEORGIA... CITY SKY/WX TMP DP RH WIND PRES REMARKS SAVANNAH ARPT LGT RAIN 68 64 88 S13G26 29.79S FOG 6HR MIN TEMP: 58; 6HR MAX TEMP: 68; 6HR PCP: 0.75; HUNTER AAF LGT RAIN 66 66 100 SW6 29.79R 6HR MIN TEMP: 59; 6HR MAX TEMP: 67; 6HR PCP: 0.32; FORT STEWART HVY RAIN 68 67 97 S8G24 29.77S FOG 6HR MIN TEMP: 58; 6HR MAX TEMP: 68; 6HR PCP: 0.72; STATESBORO CLOUDY 68 68 100 S13 29.75R SYLVANIA RAIN 68 68 100 S8G16 29.76R CLAXTON RAIN 68 68 100 S7 29.76R ...CSRA...CENTRAL AND FAR SOUTHEAST GEORGIA... CITY SKY/WX TMP DP RH WIND PRES REMARKS THOMSON CLOUDY 56 56 100 CALM 29.78F AUGUSTA-BUSH LGT RAIN 57 56 96 NE3 29.74F FOG 6HR MIN TEMP: 56; 6HR MAX TEMP: 63; 6HR PCP: 1.34; AUGUSTA-DANIEL LGT RAIN 57 56 96 E8 29.74F SWAINSBORO CLOUDY N/A N/A N/A S9 29.73S VIDALIA CLOUDY 68 68 100 S10G20 29.73S EASTMAN CLOUDY 68 68 100 W5 29.73R THUNDER HAZLEHURST CLOUDY 70 70 100 S9G17 29.72S ALMA LGT RAIN 68 66 93 S10 29.74F FOG 6HR MIN TEMP: 62; 6HR MAX TEMP: 68; 6HR PCP: 0.34; WAYCROSS LGT RAIN 72 70 93 S12G17 29.75S JESUP CLOUDY 72 70 94 CALM 29.78R BAXLEY RAIN 70 68 94 S9G20 29.74S BRUNSWICK CLOUDY 66 63 88 S10G17 29.80S SAINT SIMONS CLOUDY 64 62 93 S10 29.81R 6HR MIN TEMP: 63; 6HR MAX TEMP: 66; 6HR PCP: TRACE; $$ SCZ027-028-034-036>038-045-046-048>050-GAZ119-141-241300- ...LAKE AND SUPPLEMENTAL COASTAL OBSERVATIONS... STATION/POSITION TIME TEMP WIND PRES WAVE SWELL AIR SEA DIR/SP/G HT/PER HT/PER/DIR (UTC) (F) (DEG/KT/KT) (MB) (FT/S) (FT/S/D) UPR LAKE MARION NOT AVBL WINYAH BAY 1100 66 190/ 7 1009.0S LAKE MURRAY 1100 50 40/ 3/ 4 1007.8S ACE BASIN NERRS 1100 65 170/ 4 1009.0S FORT PULASKI 1200 65 55 160/ 6/ 10 1009.2F SAPELO ISLAND 1100 62 180/ 6 1009.0S $$ ANZ835-935-AMZ111-154-330-350-352-354-370-450-454-472-241300- ...C-MAN AND BUOY OBSERVATIONS... STATION/POSITION TIME TEMP WIND PRES WAVE SWELL AIR SEA DIR/SP/G HT/PER HT/PER/DIR (UTC) (F) (DEG/KT/KT) (MB) (FT/S) (FT/S/D) BUOY 41004 1200 74 73 180/ 16/ 19 1009.3F 8/ 7 BUOY 41008 1100 64 60 160/ 16/ 17 1008.7F 5/ 6 2/ 10/14 FOLLY BEACH CMAN 1100 62 190/ 17/ 18 1010.1F CAPERS NEARSHORE 1100 63 220/ 16/ 19 N/A FRIPP NEARSHORE NOT AVBL STATION/POSITION TIME TEMP WIND PRES WAVE SWELL AIR SEA DIR/SP/G HT/PER HT/PER/DIR (UTC) (F) (DEG/KT/KT) (MB) (FT/S) (FT/S/D) 5E ST. MARYS GA 1100 60 N/A 4/ 6 FRYING PAN BUOY 1200 73 69 180/ 21/ 25 1011.4R 7/ 7 2/100/ 9 BUOY 41025 1200 74 1012.4F CAPE LOOKOUT NC 1100 63 160/ 13/ 14 1011.7F BUOY 41002 1046 74 72 180/ 14/ 17 1016.7F 4/ 6 2/ 70/11 BUOY 41010 1200 77 77 170/ 19/ 21 1013.8R 5/ 5 2/100/ 9 ST AUGUSTINE FL 1200 71 180/ 17/ 19 1010.9R $$

USA.gov is the U.S. government's official web portal to all federal, state and local government web resources and services.